GW1675 Weather Reports


time (UTC)temp
F
wind
direction
speed
knots
gust
knots
rain 1hr
in
rain 24hr
in
rain mn
in
humidity
%
barometer
mb
20260505041548 55 115 6.1 15.6 0.00 0.00 0.00 68 1017.9
20260505040059 56 112 7.8 13.9 0.00 0.00 0.00 68 1018.0
20260505034543 56 110 7.8 14.8 0.00 0.00 0.00 67 1017.9
20260505033049 56 109 7.8 13.9 0.00 0.00 0.00 67 1017.9
20260505031551 56 104 7.8 14.8 0.00 0.00 0.00 67 1017.9
20260505030055 56 101 7.8 13.9 0.00 0.00 0.00 67 1017.7
20260505024550 56 101 7.8 11.3 0.00 0.00 0.00 67 1017.8
20260505023044 57 100 8.7 13.9 0.00 0.00 0.00 66 1017.8
20260505021543 57 99 7.8 11.3 0.00 0.00 0.00 66 1018.0
20260505020047 57 99 5.2 13.0 0.00 0.00 0.00 66 1018.0
20260505014546 57 99 6.1 13.9 0.00 0.00 0.00 66 1018.2
20260505013051 57 97 7.8 13.9 0.00 0.00 0.00 65 1018.1
20260505011546 58 94 8.7 14.8 0.00 0.00 0.00 65 1018.2
20260505010056 58 94 8.7 15.6 0.00 0.00 0.00 65 1018.3
20260505004549 58 89 6.1 16.5 0.00 0.00 0.00 65 1018.5
20260505003044 59 101 7.0 15.6 0.00 0.00 0.00 64 1018.6
20260505001545 59 94 7.0 16.5 0.00 0.00 0.00 64 1018.7
20260505000054 59 90 6.1 13.0 0.00 0.00 0.00 64 1018.8
20260504234543 60 89 7.0 13.9 0.00 0.00 0.00 64 1018.7
20260504233045 60 89 7.0 15.6 0.00 0.00 0.00 63 1018.7
20260504231544 60 89 7.0 16.5 0.00 0.00 0.00 63 1018.7
20260504230044 60 88 9.6 19.1 0.00 0.00 0.00 63 1018.7
20260504224545 60 87 8.7 19.1 0.00 0.00 0.00 62 1018.8
20260504223047 61 84 8.7 13.9 0.00 0.00 0.00 62 1018.8
20260504221547 61 84 8.7 15.6 0.00 0.00 0.00 62 1018.7
20260504220100 61 79 8.7 14.8 0.00 0.00 0.00 62 1018.9
20260504214556 61 82 6.1 13.9 0.00 0.00 0.00 62 1018.8
20260504213107 61 82 5.2 9.6 0.00 0.00 0.00 61 1018.8
20260504211555 62 82 5.2 13.9 0.00 0.00 0.00 61 1018.6
20260504210045 62 82 7.8 16.5 0.00 0.00 0.00 61 1018.6
20260504204545 62 85 7.0 14.8 0.00 0.00 0.00 61 1018.4
20260504203047 63 86 4.3 11.3 0.00 0.00 0.00 61 1018.3
20260504201547 63 87 3.5 10.4 0.00 0.00 0.00 61 1017.8
20260504200045 64 87 3.5 13.0 0.00 0.00 0.00 61 1017.8
20260504194545 64 87 4.3 10.4 0.00 0.00 0.00 61 1017.5
20260504193058 65 86 4.3 8.7 0.00 0.00 0.00 61 1017.4
20260504191553 66 87 5.2 12.2 0.00 0.00 0.00 61 1017.3
20260504190054 68 87 7.0 15.6 0.00 0.00 0.00 62 1017.1
20260504184545 69 89 7.8 14.8 0.00 0.00 0.00 62 1016.8
20260504183056 70 94 5.2 13.0 0.00 0.00 0.00 62 1016.6
20260504181552 70 103 7.8 13.9 0.00 0.00 0.00 63 1016.5
20260504180131 71 137 7.0 11.3 0.00 0.00 0.00 63 1016.4
20260504174548 72 158 4.3 9.6 0.00 0.00 0.00 63 1016.3
20260504173052 72 167 5.2 11.3 0.00 0.00 0.00 64 1016.2
20260504171549 73 176 2.6 6.1 0.00 0.00 0.00 64 1016.2
20260504081552 62 188 5.2 10.4 0.00 0.00 0.00 76 1018.8